Retour au catalogue

STARLINK-36914

ActifCommunicationsVLEO
NORAD 67942·PAYLOAD·🇺🇸 United States

Lancé Feb 24, 2026 depuis Vandenberg Space Force Base

Loading…

Prochains Passages (prochaines 24 heures)

TLE

FraisSource: CelesTrak SupGP

Époque: Sep 14, 2026, 15:54 UTC

1 67942C 26037L   26257.66298611  .00011747  00000+0  42532-3 0  2572
2 67942  42.9999 203.5253 0001045 251.2581  24.4739 15.27584539    15

Suivez STARLINK-36914 en temps réel avec AllMySat

Download on the App Store